When you browse on this site, cookies collect data to enhance your experience and personalize the content and advertising you see.
Visit our Privacy Policy to learn more. By continuing to use the site, you agree to this use of cookies and data.
  • In Czech Republic
  • List of Countries
  • For 7 days
  • Water Temperature
  • Satellite Maps
  • Weather Map
  • Weather Widgets
  • user-avatar
    Login

    Hourly Weather Walpole

    Today, 22 February, Friday

    Time Temperature Precipitation Wind Pressure Humidity
    00:00 -1°C° 0 mm 3 mps 758 mmHg 80%
    01:00 -1°C° 0 mm 3 mps 758 mmHg 80%
    02:00 -1°C° 0 mm 3 mps 759 mmHg 79%
    03:00 -2°C° 0 mm 3 mps 759 mmHg 79%
    04:00 -2°C° 0 mm 3 mps 760 mmHg 79%
    05:00 -2°C° 0 mm 3 mps 760 mmHg 79%
    06:00 -2°C° 0 mm 3 mps 761 mmHg 80%
    07:00 -4°C° 0 mm 3 mps 761 mmHg 80%
    08:00 -1°C° 0 mm 3 mps 762 mmHg 74%
    09:00 -1°C° 0 mm 4 mps 763 mmHg 68%
    10:00 0°C° 0 mm 4 mps 763 mmHg 63%
    11:00 +1°C° 0 mm 4 mps 764 mmHg 61%
    12:00 +1°C° 0 mm 4 mps 764 mmHg 58%
    13:00 +3°C° 0 mm 3 mps 764 mmHg 56%
    14:00 +3°C° 0 mm 3 mps 764 mmHg 59%
    15:00 +4°C° 0 mm 2 mps 764 mmHg 61%
    16:00 +4°C° 0 mm 2 mps 764 mmHg 63%
    17:00 +2°C° 0 mm 2 mps 765 mmHg 69%
    18:00 +2°C° 0 mm 1 mps 765 mmHg 75%
    19:00 +1°C° 0 mm 1 mps 766 mmHg 82%
    20:00 0°C° 0 mm 1 mps 766 mmHg 83%
    21:00 0°C° 0 mm 1 mps 767 mmHg 84%
    22:00 0°C° 0 mm 1 mps 767 mmHg 85%
    23:00 -1°C° 0 mm 1 mps 768 mmHg 84%

    Tomorrow, 23 February, Saturday

    Time Temperature Precipitation Wind Pressure Humidity
    00:00 -1°C° 0 mm 1 mps 768 mmHg 83%
    01:00 -1°C° 0 mm 1 mps 768 mmHg 82%
    02:00 -1°C° 0 mm 1 mps 768 mmHg 81%
    03:00 -2°C° 0 mm 1 mps 768 mmHg 79%
    04:00 -2°C° 0 mm 1 mps 768 mmHg 77%
    05:00 -2°C° 0 mm 1 mps 768 mmHg 76%
    06:00 -2°C° 0 mm 1 mps 768 mmHg 75%
    07:00 -2°C° 0 mm 1 mps 769 mmHg 74%
    08:00 -1°C° 0 mm 0 mps 769 mmHg 67%
    09:00 +1°C° 0 mm 0 mps 769 mmHg 60%
    10:00 +2°C° 0 mm 0 mps 769 mmHg 52%
    11:00 +3°C° 0 mm 0 mps 768 mmHg 51%
    12:00 +5°C° 0 mm 1 mps 768 mmHg 50%
    13:00 +6°C° 0 mm 1 mps 767 mmHg 48%
    14:00 +6°C° 0 mm 1 mps 767 mmHg 53%
    15:00 +6°C° 0 mm 1 mps 766 mmHg 58%
    16:00 +5°C° 0 mm 1 mps 765 mmHg 63%
    17:00 +4°C° 0 mm 1 mps 765 mmHg 69%
    18:00 +2°C° 0 mm 2 mps 765 mmHg 76%
    19:00 -1°C° 0 mm 2 mps 765 mmHg 82%
    20:00 -1°C° 0 mm 2 mps 765 mmHg 82%
    21:00 +1°C° 0 mm 1 mps 764 mmHg 83%
    22:00 +1°C° 0 mm 1 mps 764 mmHg 83%
    23:00 +1°C° 0 mm 1 mps 763 mmHg 84%

    Day after tomorrow, 24 February, Sunday

    Time Temperature Precipitation Wind Pressure Humidity
    00:00 +1°C° 0 mm 2 mps 762 mmHg 85%
    01:00 +1°C° 0 mm 2 mps 762 mmHg 86%
    02:00 +1°C° 0.2 mm 2 mps 761 mmHg 88%
    03:00 +2°C° 0.2 mm 2 mps 759 mmHg 90%
    04:00 +1°C° 0.2 mm 3 mps 758 mmHg 92%
    05:00 +2°C° 1.7 mm 3 mps 757 mmHg 93%
    06:00 +1°C° 1.7 mm 4 mps 756 mmHg 94%
    07:00 +1°C° 1.7 mm 5 mps 755 mmHg 95%
    08:00 +2°C° 1.8 mm 5 mps 753 mmHg 95%
    09:00 +3°C° 1.8 mm 5 mps 751 mmHg 95%
    10:00 +3°C° 1.8 mm 5 mps 750 mmHg 95%
    11:00 +5°C° 2.2 mm 4 mps 748 mmHg 95%
    12:00 +6°C° 2.2 mm 4 mps 746 mmHg 96%
    13:00 +7°C° 2.2 mm 4 mps 743 mmHg 96%
    14:00 +8°C° 0.3 mm 3 mps 742 mmHg 96%
    15:00 +9°C° 0.3 mm 3 mps 740 mmHg 97%
    16:00 +9°C° 0.3 mm 2 mps 739 mmHg 97%
    17:00 +9°C° 0.1 mm 3 mps 738 mmHg 92%
    18:00 +8°C° 0.1 mm 4 mps 738 mmHg 87%
    19:00 +8°C° 0.1 mm 5 mps 738 mmHg 81%
    20:00 +7°C° 0 mm 6 mps 739 mmHg 78%
    21:00 +5°C° 0 mm 6 mps 739 mmHg 75%
    22:00 +3°C° 0 mm 6 mps 740 mmHg 71%
    23:00 +3°C° 0 mm 6 mps 740 mmHg 70%

    25 February, Monday

    Time Temperature Precipitation Wind Pressure Humidity
    00:00 +2°C° 0 mm 6 mps 740 mmHg 69%
    01:00 0°C° 0 mm 7 mps 740 mmHg 67%
    02:00 0°C° 0 mm 7 mps 740 mmHg 66%
    03:00 -1°C° 0 mm 6 mps 741 mmHg 64%
    04:00 -2°C° 0 mm 6 mps 741 mmHg 63%
    05:00 -2°C° 0 mm 7 mps 741 mmHg 62%
    06:00 -3°C° 0 mm 7 mps 741 mmHg 62%
    07:00 -3°C° 0 mm 7 mps 742 mmHg 62%
    08:00 -2°C° 0 mm 8 mps 742 mmHg 57%
    09:00 -3°C° 0 mm 9 mps 743 mmHg 53%
    10:00 -1°C° 0 mm 9 mps 744 mmHg 48%
    11:00 -3°C° 0 mm 10 mps 744 mmHg 46%
    12:00 -3°C° 0 mm 10 mps 745 mmHg 43%
    13:00 -3°C° 0 mm 10 mps 746 mmHg 41%
    14:00 -4°C° 0 mm 10 mps 747 mmHg 41%
    15:00 -4°C° 0 mm 10 mps 748 mmHg 42%
    16:00 -4°C° 0 mm 9 mps 749 mmHg 42%
    17:00 -6°C° 0 mm 9 mps 751 mmHg 43%
    18:00 -7°C° 0 mm 8 mps 752 mmHg 44%
    19:00 -8°C° 0 mm 7 mps 754 mmHg 44%
    20:00 -8°C° 0 mm 7 mps 754 mmHg 43%
    21:00 -9°C° 0 mm 7 mps 755 mmHg 41%
    22:00 -9°C° 0 mm 7 mps 756 mmHg 39%
    23:00 -10°C° 0 mm 6 mps 757 mmHg 39%

    26 February, Tuesday

    Time Temperature Precipitation Wind Pressure Humidity
    00:00 -10°C° 0 mm 6 mps 757 mmHg 39%
    01:00 -11°C° 0 mm 6 mps 758 mmHg 38%
    02:00 -11°C° 0 mm 6 mps 759 mmHg 38%
    03:00 -11°C° 0 mm 6 mps 759 mmHg 37%
    04:00 -12°C° 0 mm 6 mps 760 mmHg 36%
    05:00 -12°C° 0 mm 6 mps 761 mmHg 36%
    06:00 -12°C° 0 mm 6 mps 762 mmHg 36%
    07:00 -13°C° 0 mm 5 mps 762 mmHg 35%
    08:00 -12°C° 0 mm 6 mps 763 mmHg 33%
    09:00 -11°C° 0 mm 6 mps 763 mmHg 30%
    10:00 -10°C° 0 mm 6 mps 764 mmHg 27%
    11:00 -10°C° 0 mm 6 mps 764 mmHg 26%
    12:00 -9°C° 0 mm 6 mps 763 mmHg 24%
    13:00 -8°C° 0 mm 6 mps 763 mmHg 23%
    14:00 -8°C° 0 mm 6 mps 763 mmHg 24%
    15:00 -8°C° 0 mm 6 mps 763 mmHg 25%
    16:00 -9°C° 0 mm 6 mps 764 mmHg 25%
    17:00 -8°C° 0 mm 5 mps 764 mmHg 28%
    18:00 -10°C° 0 mm 5 mps 765 mmHg 30%
    19:00 -10°C° 0 mm 4 mps 766 mmHg 33%
    20:00 -10°C° 0 mm 4 mps 766 mmHg 34%
    21:00 -11°C° 0 mm 4 mps 767 mmHg 35%
    22:00 -10°C° 0 mm 3 mps 767 mmHg 36%
    23:00 -12°C° 0 mm 3 mps 767 mmHg 37%

    27 February, Wednesday

    Time Temperature Precipitation Wind Pressure Humidity
    00:00 -12°C° 0 mm 3 mps 767 mmHg 37%
    01:00 -12°C° 0 mm 2 mps 767 mmHg 37%
    02:00 -12°C° 0 mm 2 mps 766 mmHg 38%
    03:00 -10°C° 0 mm 1 mps 766 mmHg 38%
    04:00 -10°C° 0 mm 1 mps 766 mmHg 38%
    05:00 -10°C° 0 mm 1 mps 766 mmHg 37%
    06:00 -10°C° 0 mm 1 mps 765 mmHg 37%
    07:00 -9°C° 0 mm 0 mps 765 mmHg 36%
    08:00 -9°C° 0.1 mm 1 mps 764 mmHg 44%
    09:00 -9°C° 0.1 mm 1 mps 764 mmHg 51%
    10:00 -8°C° 0.1 mm 1 mps 763 mmHg 59%
    11:00 -8°C° 0.5 mm 1 mps 762 mmHg 67%
    12:00 -9°C° 0.5 mm 2 mps 760 mmHg 76%
    13:00 -9°C° 0.5 mm 2 mps 759 mmHg 84%
    14:00 -9°C° 0.7 mm 2 mps 758 mmHg 87%
    15:00 -9°C° 0.7 mm 2 mps 756 mmHg 89%
    16:00 -9°C° 0.7 mm 2 mps 755 mmHg 91%
    17:00 -8°C° 0.7 mm 2 mps 754 mmHg 92%
    18:00 -8°C° 0.7 mm 2 mps 753 mmHg 94%
    19:00 -8°C° 0.7 mm 2 mps 752 mmHg 95%
    20:00 -8°C° 0.6 mm 2 mps 752 mmHg 95%
    21:00 -7°C° 0.6 mm 1 mps 752 mmHg 95%
    22:00 -6°C° 0.6 mm 1 mps 752 mmHg 95%
    23:00 -7°C° 0 mm 1 mps 753 mmHg 95%
    Show more